Regional Weather Roundup
Issued by NWS Sterling, VA

Current Version | Previous Version | Text Only | Print | Product List | Glossary On
Versions: 1 2 3 4 5 6 7 8 9 10 11 12 13 14 15 16 17 18 19 20 21 22 23 24 25 26 27 28 29 30 31 32 33 34 35 36 37 38 39 40 41 42 43 44 45 46 47 48 49 50
000
ASUS41 KLWX 301410
RWRLWX

REGIONAL WEATHER ROUNDUP
NATIONAL WEATHER SERVICE BALTIMORE MD/WASHINGTON DC
1000 AM EDT TUE JUN 30 2015

Note: "FAIR" indicates few or no clouds below 12,000 feet
with no significant weather and/or obstructions to visibility.
 TC=TEMPERATURE CELSIUS

 * =Non NWS site. Station does not report precipitation (e.g. rain,
    snow, etc.), thunder, or fog.

DCZ001-MDZ009-015-VAZ040>042-051-053>054-301500-
WASHINGTON METRO

CITY           SKY/WX    TMP DP  RH WIND       PRES   REMARKS
WASHINGTON NAT CLOUDY    78  71  79 S6        29.92R
DULLES         PTSUNNY   73  67  81 S7        29.92R
ANDREWS AFB    CLOUDY    76  74  92 S8        29.91S
FT BELVOIR     CLOUDY    73  70  88 VRB3      29.91F HAZE
QUANTICO       CLOUDY    75  68  78 S8        29.91F
COLLEGE PARK*  CLOUDY    75  72  88 CALM      29.91S
LEESBURG*      PTSUNNY   73  70  88 S12G17    29.92F
MANASSAS*      PTSUNNY   73  70  88 S5          N/A
GAITHERSBURG*  PTSUNNY   73  66  78 S6        29.95F

$$

MDZ006>007-011-014-301500-
BALTIMORE METRO

CITY           SKY/WX    TMP DP  RH WIND       PRES   REMARKS
BWI AIRPORT    LGT RAIN  75  70  84 SE5       29.91S
MD SCIENCE CTR   N/A     78  70  76 MISG      29.91F
MARTIN STATE   CLOUDY    75  73  94 SE9       29.93S
ANNAPOLIS      CLOUDY    77  72  84 S14G21    29.92R
FORT MEADE*    CLOUDY    72  70  94 CALM      29.94R

$$

MDZ012-015-019>023-301500-
MARYLAND EASTERN SHORE

CITY           SKY/WX    TMP DP  RH WIND       PRES   REMARKS
OCEAN CITY     MOSUNNY   77  71  82 S7        29.99S
SALISBURY      SUNNY     80  67  64 S9G22     29.96F
BAY BRIDGE AP*   N/A     77  72  83 S12       29.92S
CAMBRIDGE*     MOSUNNY   81  70  69 S13G20    29.93F
EASTON*        MOSUNNY   82  73  74 S12G23    29.96F

$$

MDZ017>025-301500-
SOUTHERN MARYLAND

CITY           SKY/WX    TMP DP  RH WIND       PRES   REMARKS
PATUXENT RIVER MOSUNNY   81  73  76 SE14G22   29.92F
ST INIGOES     SUNNY     81  73  76 S10       29.92F
LEONARDTOWN*   MOSUNNY   81  70  69 S9        29.94S

$$

MDZ003>005-301500-
NORTH CENTRAL MARYLAND

CITY           SKY/WX    TMP DP  RH WIND       PRES   REMARKS
FREDERICK*     CLOUDY    73  70  88 SW8       29.94S
HAGERSTOWN APT SUNNY     77  64  64 S7        29.90S
WESTMINSTER*   MOSUNNY   75  70  83 S8        29.93R

$$

MDZ501>502-301500-
WESTERN MARYLAND

CITY           SKY/WX    TMP DP  RH WIND       PRES   REMARKS
OAKLAND*       PTSUNNY   64 N/A N/A SW10G17   29.97S
CUMBERLAND*    MOSUNNY   73  64  73 SE3       29.93F

$$

VAZ025>031-301500-
SHENANDOAH VALLEY

CITY           SKY/WX    TMP DP  RH WIND       PRES   REMARKS
WINCHESTER*    SUNNY     79  63  57 S5        29.91S
FRONT ROYAL*   FAIR      77  64  65 CALM      29.90S
LURAY*         FAIR      81  64  57 S12       29.92S
NEW MARKET*    FAIR      77  64  62 SW6       29.90S
STAUNTON*      MOSUNNY   80  64  59 SW10      29.96S
WAYNESBORO*    FAIR      74  63  68 SW12      29.96S

$$

WVZ021-048>050-054>055-301500-
EASTERN WEST VIRGINIA PANHANDLE

CITY           SKY/WX    TMP DP  RH WIND       PRES   REMARKS
MARTINSBURG    SUNNY     74  63  68 S3        29.90S
PETERSBURG*    MOSUNNY   76  59  54 CALM      29.92S

$$

VAZ036>039-050-301500-
CENTRAL FOOTHILLS

CITY           SKY/WX    TMP DP  RH WIND       PRES   REMARKS
CHARLOTTESVILL SUNNY     73  65  75 SW6       29.93S
CULPEPER*      MOSUNNY   74  67  80 S5        29.92F
ORANGE*        SUNNY     77  68  73 S5        29.93F
GORDONSVILLE*  FAIR      75  66  73 S8        29.92S
WARRENTON*     PTSUNNY   73  70  88 CALM      29.91S

$$

VAZ055>057-301500-
NORTH AND CENTRAL PIEDMONT

CITY           SKY/WX    TMP DP  RH WIND       PRES   REMARKS
FREDERICKSBRG* PTSUNNY   79  69  72 S6        29.90F
STAFFORD*      CLOUDY    74  68  82 W3        29.96R

$$

NCZ024-NYZ072-PAZ021-071-VAZ022-071-301500-
OTHER REGIONAL OBSERVATIONS

CITY           SKY/WX    TMP DP  RH WIND       PRES   REMARKS
NEW YORK CITY  MOSUNNY   77  57  50 VRB3      30.00S
PHILADELPHIA   PTSUNNY   80  65  59 S17G25    29.94F
PITTSBURGH     PTSUNNY   68  62  81 SW7       29.88R
ROANOKE        MOSUNNY   73  64  73 SW8       29.97F
RICHMOND       MOSUNNY   82  69  64 SE8       29.92F
RALEIGH        MOSUNNY   81  65  58 SW9       29.97S

$$

ANZ530>537-301500-
MARINE OBSERVATIONS

STATION/POSITION TIME  TEMP    WIND        PRES
                       AIR SEA DIR/SP/G
                 (UTC) (F)     (DEG/KT/KT) (MB)
THOMAS PT LIGHT  1300   76     170/ 19     1013.4F
BALT KEY BRIDGE  1300   76     150/ 12/ 14 1012.5F
COVE POINT       1300   77     190/ 20/ 23 1014.3R
LEWISETTA        1300   79 79  190/ 11/ 14 1013.2F
SOLOMONS ISLAND  1300      79                N/A
PINEY POINT      1300          180/ 14/ 15   N/A

$$



USA.gov is the U.S. government's official web portal to all federal, state and local government web resources and services.